�������l�o���
Date,Time,MP-1(��Sv/h),MP-2(��Sv/h),MP-3(��Sv/h),MP-4(��Sv/h),MP-5(��Sv/h),MP-6(��Sv/h),MP-7(��Sv/h),MP-8(��Sv/h),����,����(m/s),���J
2022/03/04,00:00,0.587,0.874,0.554,1.076,0.765,0.350,0.611,0.578,��,4.0,��
2022/03/04,00:10,0.587,0.876,0.554,1.077,0.766,0.351,0.610,0.576,��,4.5,��
2022/03/04,00:20,0.588,0.873,0.554,1.077,0.767,0.352,0.611,0.577,��,4.0,��
2022/03/04,00:30,0.588,0.876,0.554,1.074,0.764,0.352,0.612,0.577,��,5.6,��
2022/03/04,00:40,0.588,0.876,0.556,1.075,0.764,0.351,0.611,0.581,��,6.2,��
2022/03/04,00:50,0.587,0.874,0.553,1.076,0.768,0.352,0.611,0.577,��,6.0,��
2022/03/04,01:00,0.588,0.875,0.553,1.074,0.766,0.352,0.611,0.579,��,6.6,��
2022/03/04,01:10,0.587,0.876,0.555,1.077,0.765,0.352,0.611,0.578,���쐼,6.3,��
2022/03/04,01:20,0.588,0.874,0.554,1.077,0.764,0.352,0.611,0.578,��,7.1,��
2022/03/04,01:30,0.589,0.876,0.554,1.077,0.765,0.350,0.612,0.578,��,6.4,��
2022/03/04,01:40,0.588,0.875,0.554,1.078,0.765,0.352,0.612,0.577,���쐼,5.3,��
2022/03/04,01:50,0.588,0.875,0.555,1.075,0.765,0.351,0.610,0.577,��,4.5,��
2022/03/04,02:00,0.588,0.873,0.554,1.076,0.764,0.351,0.611,0.577,��,4.6,��
2022/03/04,02:10,0.588,0.875,0.552,1.076,0.765,0.352,0.610,0.578,���k��,4.2,��
2022/03/04,02:20,0.586,0.875,0.555,1.075,0.767,0.350,0.612,0.577,���k��,4.0,��
2022/03/04,02:30,0.588,0.876,0.553,1.075,0.764,0.352,0.611,0.576,���k��,3.9,��
2022/03/04,02:40,0.588,0.875,0.554,1.075,0.765,0.351,0.610,0.577,���k��,1.9,��
2022/03/04,02:50,0.588,0.875,0.554,1.078,0.767,0.351,0.611,0.578,�k��,1.2,��
2022/03/04,03:00,0.586,0.877,0.554,1.077,0.765,0.351,0.610,0.578,��,1.9,��
2022/03/04,03:10,0.588,0.875,0.555,1.076,0.765,0.352,0.611,0.577,���쐼,2.3,��
2022/03/04,03:20,0.589,0.873,0.552,1.076,0.766,0.352,0.610,0.577,��,4.5,��
2022/03/04,03:30,0.587,0.874,0.553,1.077,0.765,0.350,0.611,0.578,���k��,4.4,��
2022/03/04,03:40,0.589,0.875,0.553,1.076,0.765,0.350,0.611,0.578,���k��,5.3,��
2022/03/04,03:50,0.588,0.877,0.554,1.075,0.764,0.349,0.610,0.577,�k��,7.5,��
2022/03/04,04:00,0.588,0.874,0.555,1.077,0.766,0.351,0.613,0.577,���k��,8.6,��
2022/03/04,04:10,0.587,0.876,0.554,1.076,0.766,0.352,0.611,0.577,�k��,8.3,��
2022/03/04,04:20,0.589,0.873,0.554,1.075,0.767,0.351,0.613,0.577,���k��,7.2,��
2022/03/04,04:30,0.588,0.877,0.551,1.079,0.765,0.350,0.610,0.578,���k��,6.9,��
2022/03/04,04:40,0.587,0.875,0.551,1.076,0.763,0.350,0.612,0.578,���k��,4.7,��
2022/03/04,04:50,0.588,0.875,0.552,1.076,0.765,0.350,0.612,0.577,���k��,4.3,��
2022/03/04,05:00,0.588,0.875,0.554,1.075,0.764,0.351,0.613,0.578,���k��,5.1,��
2022/03/04,05:10,0.588,0.874,0.553,1.075,0.764,0.350,0.610,0.577,���k��,5.2,��
2022/03/04,05:20,0.587,0.875,0.556,1.077,0.766,0.351,0.611,0.579,���k��,7.0,��
2022/03/04,05:30,0.586,0.875,0.554,1.078,0.763,0.352,0.612,0.577,���k��,6.9,��
2022/03/04,05:40,0.588,0.875,0.555,1.075,0.764,0.351,0.610,0.579,���k��,5.0,��
2022/03/04,05:50,0.586,0.875,0.554,1.074,0.766,0.350,0.611,0.577,���k��,3.1,��
2022/03/04,06:00,0.590,0.874,0.553,1.077,0.766,0.351,0.610,0.577,���쐼,1.5,��
2022/03/04,06:10,0.589,0.876,0.554,1.076,0.763,0.351,0.611,0.577,�쓌,2.0,��
2022/03/04,06:20,0.586,0.875,0.553,1.075,0.764,0.351,0.611,0.577,�k�k��,2.0,��
2022/03/04,06:30,0.589,0.875,0.554,1.075,0.766,0.352,0.612,0.578,�k��,3.4,��
2022/03/04,06:40,0.588,0.875,0.554,1.074,0.764,0.352,0.612,0.578,���k��,4.5,��
2022/03/04,06:50,0.589,0.873,0.554,1.076,0.764,0.351,0.610,0.577,���k��,5.3,��
2022/03/04,07:00,0.588,0.874,0.554,1.076,0.765,0.350,0.611,0.578,�k��,5.2,��
2022/03/04,07:10,0.588,0.876,0.552,1.075,0.762,0.351,0.611,0.577,���k��,5.7,��
2022/03/04,07:20,0.588,0.875,0.552,1.076,0.765,0.352,0.611,0.578,�k��,6.1,��
2022/03/04,07:30,0.589,0.873,0.555,1.076,0.764,0.352,0.612,0.579,�k��,4.4,��
2022/03/04,07:40,0.588,0.875,0.553,1.075,0.764,0.351,0.612,0.577,�k��,4.0,��
2022/03/04,07:50,0.588,0.873,0.554,1.078,0.764,0.350,0.612,0.578,�k��,4.8,��
2022/03/04,08:00,0.589,0.869,0.554,1.075,0.764,0.351,0.612,0.576,�k�k��,4.4,��
2022/03/04,08:10,0.589,0.870,0.554,1.075,0.763,0.353,0.612,0.577,�k��,2.0,��
2022/03/04,08:20,0.589,0.869,0.556,1.077,0.764,0.351,0.611,0.577,���k��,4.7,��
2022/03/04,08:30,0.590,0.862,0.557,1.078,0.765,0.352,0.612,0.578,���k��,4.0,��
2022/03/04,08:40,0.589,0.871,0.555,1.075,0.764,0.351,0.612,0.577,���k��,5.7,��
2022/03/04,08:50,0.589,0.870,0.555,1.076,0.766,0.350,0.612,0.578,��,4.8,��
2022/03/04,09:00,0.589,0.870,0.554,1.077,0.764,0.352,0.612,0.577,��,6.8,��
2022/03/04,09:10,0.590,0.872,0.555,1.077,0.764,0.352,0.612,0.578,���k��,5.2,��
2022/03/04,09:20,0.590,0.872,0.555,1.077,0.763,0.350,0.613,0.578,���k��,3.0,��
2022/03/04,09:30,0.590,0.875,0.555,1.078,0.764,0.352,0.612,0.579,���k��,5.3,��
2022/03/04,09:40,0.589,0.873,0.553,1.076,0.764,0.351,0.613,0.577,���k��,4.7,��
2022/03/04,09:50,0.589,0.870,0.555,1.079,0.765,0.351,0.612,0.577,��,4.8,��
2022/03/04,10:00,0.590,0.872,0.553,1.076,0.764,0.352,0.613,0.579,��,6.5,��
2022/03/04,10:10,0.589,0.870,0.557,1.078,0.766,0.353,0.612,0.578,���쐼,6.0,��
2022/03/04,10:20,0.591,0.869,0.554,1.078,0.768,0.352,0.612,0.579,���k��,6.7,��
2022/03/04,10:30,0.591,0.874,0.556,1.077,0.767,0.351,0.611,0.578,��,7.2,��
2022/03/04,10:40,0.590,0.873,0.555,1.078,0.765,0.353,0.612,0.577,���쐼,5.2,��
2022/03/04,10:50,0.590,0.874,0.553,1.078,0.765,0.352,0.612,0.576,���쐼,2.2,��
2022/03/04,11:00,0.590,0.872,0.554,1.078,0.767,0.352,0.611,0.577,���쓌,4.8,��
2022/03/04,11:10,0.588,0.873,0.555,1.079,0.767,0.352,0.610,0.577,��,5.2,��
2022/03/04,11:20,0.590,0.873,0.555,1.081,0.767,0.351,0.611,0.577,��,4.8,��
2022/03/04,11:30,0.588,0.874,0.555,1.078,0.767,0.352,0.610,0.576,��,5.2,��
2022/03/04,11:40,0.589,0.874,0.555,1.078,0.769,0.351,0.610,0.578,��,5.2,��
2022/03/04,11:50,0.590,0.873,0.555,1.077,0.765,0.352,0.611,0.579,���쓌,4.6,��
2022/03/04,12:00,0.589,0.874,0.555,1.079,0.767,0.352,0.612,0.578,���쓌,4.6,��
2022/03/04,12:10,0.591,0.876,0.558,1.078,0.766,0.352,0.611,0.579,�쓌,5.5,��
2022/03/04,12:20,0.590,0.875,0.556,1.077,0.767,0.353,0.613,0.578,�쓌,7.1,��
2022/03/04,12:30,0.590,0.875,0.555,1.077,0.766,0.354,0.612,0.578,�쓌,7.6,��
2022/03/04,12:40,0.590,0.875,0.555,1.078,0.765,0.350,0.610,0.577,�쓌,5.8,��
2022/03/04,12:50,0.590,0.877,0.555,1.079,0.766,0.354,0.612,0.577,�쓌,6.7,��
2022/03/04,13:00,0.590,0.876,0.556,1.082,0.767,0.351,0.612,0.579,��쓌,7.0,��
2022/03/04,13:10,0.591,0.876,0.556,1.079,0.765,0.351,0.612,0.579,��쓌,6.7,��
2022/03/04,13:20,0.589,0.876,0.557,1.079,0.767,0.353,0.612,0.578,��쓌,5.7,��
2022/03/04,13:30,0.591,0.877,0.557,1.078,0.765,0.352,0.609,0.576,��쓌,7.4,��
2022/03/04,13:40,0.590,0.875,0.555,1.080,0.765,0.352,0.612,0.578,��쓌,7.9,��
2022/03/04,13:50,0.589,0.877,0.555,1.078,0.767,0.353,0.611,0.577,��쓌,8.1,��
2022/03/04,14:00,0.591,0.877,0.554,1.081,0.766,0.351,0.611,0.579,��쓌,8.2,��
2022/03/04,14:10,0.590,0.877,0.556,1.080,0.766,0.353,0.611,0.579,��쓌,8.9,��
2022/03/04,14:20,0.589,0.876,0.557,1.079,0.768,0.352,0.612,0.577,��쓌,7.8,��
2022/03/04,14:30,0.589,0.878,0.557,1.078,0.768,0.354,0.611,0.575,��쓌,8.3,��
2022/03/04,14:40,0.591,0.878,0.556,1.080,0.768,0.353,0.610,0.576,��쓌,7.8,��
2022/03/04,14:50,0.591,0.877,0.558,1.080,0.766,0.352,0.611,0.576,��쓌,7.2,��
2022/03/04,15:00,0.592,0.875,0.557,1.079,0.767,0.352,0.609,0.577,��쓌,6.9,��
2022/03/04,15:10,0.589,0.878,0.555,1.078,0.766,0.353,0.610,0.576,��쓌,8.1,��
2022/03/04,15:20,0.589,0.878,0.556,1.078,0.768,0.353,0.612,0.577,��쓌,8.3,��
2022/03/04,15:30,0.589,0.876,0.556,1.080,0.767,0.351,0.610,0.577,��쓌,7.2,��
2022/03/04,15:40,0.590,0.879,0.557,1.079,0.768,0.353,0.614,0.575,��쓌,7.1,��
2022/03/04,15:50,0.591,0.879,0.558,1.079,0.768,0.353,0.612,0.578,��쓌,7.2,��
2022/03/04,16:00,0.591,0.876,0.557,1.081,0.768,0.351,0.612,0.580,��쓌,7.0,��
2022/03/04,16:10,0.592,0.879,0.557,1.080,0.768,0.353,0.613,0.579,��쓌,8.3,��
2022/03/04,16:20,0.591,0.877,0.557,1.078,0.768,0.351,0.613,0.579,��쓌,8.7,��
2022/03/04,16:30,0.592,0.878,0.557,1.081,0.770,0.353,0.614,0.579,��쓌,8.5,��
2022/03/04,16:40,0.590,0.877,0.556,1.079,0.768,0.353,0.614,0.579,��쓌,8.7,��
2022/03/04,16:50,0.590,0.878,0.555,1.082,0.768,0.352,0.613,0.579,��쓌,7.5,��
2022/03/04,17:00,0.591,0.879,0.556,1.079,0.768,0.352,0.614,0.578,��쓌,8.2,��
2022/03/04,17:10,0.590,0.879,0.556,1.080,0.767,0.352,0.614,0.580,��쓌,7.5,��
2022/03/04,17:20,0.591,0.875,0.557,1.079,0.767,0.352,0.613,0.579,��쓌,7.0,��
2022/03/04,17:30,0.590,0.879,0.556,1.079,0.768,0.353,0.614,0.579,��,6.7,��
2022/03/04,17:40,0.592,0.877,0.557,1.078,0.769,0.353,0.613,0.577,��,6.9,��
2022/03/04,17:50,0.590,0.880,0.556,1.078,0.768,0.351,0.613,0.578,��,6.9,��
2022/03/04,18:00,0.589,0.879,0.557,1.078,0.769,0.353,0.614,0.578,��,6.8,��
2022/03/04,18:10,0.591,0.876,0.556,1.078,0.770,0.352,0.614,0.579,��,7.0,��
2022/03/04,18:20,0.591,0.880,0.556,1.080,0.769,0.352,0.614,0.579,��,6.4,��
2022/03/04,18:30,0.592,0.876,0.555,1.078,0.768,0.352,0.614,0.578,��,7.2,��
2022/03/04,18:40,0.589,0.878,0.555,1.076,0.769,0.352,0.614,0.577,��,7.6,��
2022/03/04,18:50,0.591,0.878,0.556,1.078,0.769,0.352,0.613,0.578,��,7.9,��
2022/03/04,19:00,0.590,0.878,0.556,1.078,0.769,0.353,0.613,0.579,��,7.7,��
2022/03/04,19:10,0.590,0.880,0.555,1.080,0.766,0.351,0.614,0.578,��,7.4,��
2022/03/04,19:20,0.589,0.877,0.557,1.078,0.769,0.352,0.615,0.578,��,7.7,��
2022/03/04,19:30,0.591,0.880,0.554,1.079,0.767,0.353,0.613,0.579,��,7.2,��
2022/03/04,19:40,0.590,0.879,0.556,1.078,0.766,0.351,0.614,0.579,��,8.2,��
2022/03/04,19:50,0.590,0.880,0.556,1.076,0.765,0.351,0.615,0.578,��,6.9,��
2022/03/04,20:00,0.588,0.878,0.556,1.078,0.768,0.352,0.613,0.579,��,7.4,��
2022/03/04,20:10,0.590,0.879,0.558,1.079,0.768,0.351,0.613,0.578,��,6.5,��
2022/03/04,20:20,0.590,0.880,0.555,1.078,0.768,0.351,0.611,0.577,��,7.2,��
2022/03/04,20:30,0.590,0.880,0.556,1.079,0.769,0.352,0.611,0.578,��,7.4,��
2022/03/04,20:40,0.590,0.880,0.556,1.079,0.768,0.352,0.613,0.577,��,6.7,��
2022/03/04,20:50,0.588,0.879,0.556,1.081,0.766,0.351,0.613,0.578,��,7.4,��
2022/03/04,21:00,0.591,0.879,0.554,1.077,0.768,0.352,0.614,0.578,��,5.2,��
2022/03/04,21:10,0.590,0.879,0.555,1.077,0.769,0.354,0.614,0.579,��,5.7,��
2022/03/04,21:20,0.592,0.879,0.554,1.079,0.767,0.352,0.613,0.579,��,3.8,��
2022/03/04,21:30,0.588,0.878,0.555,1.078,0.767,0.351,0.613,0.579,��,4.7,��
2022/03/04,21:40,0.589,0.877,0.556,1.079,0.768,0.353,0.614,0.578,��,5.0,��
2022/03/04,21:50,0.590,0.878,0.555,1.078,0.769,0.353,0.613,0.578,��쐼,5.0,��
2022/03/04,22:00,0.590,0.880,0.556,1.077,0.769,0.352,0.612,0.579,��,4.7,��
2022/03/04,22:10,0.590,0.879,0.557,1.079,0.768,0.352,0.612,0.577,��쐼,4.5,��
2022/03/04,22:20,0.589,0.881,0.556,1.077,0.768,0.353,0.612,0.577,��쐼,4.2,��
2022/03/04,22:30,0.591,0.879,0.556,1.078,0.765,0.352,0.612,0.577,��쐼,4.5,��
2022/03/04,22:40,0.591,0.879,0.556,1.080,0.767,0.352,0.612,0.578,��쐼,4.4,��
2022/03/04,22:50,0.590,0.879,0.556,1.077,0.767,0.352,0.611,0.578,��쐼,4.1,��
2022/03/04,23:00,0.591,0.880,0.556,1.077,0.767,0.352,0.612,0.577,��쐼,4.2,��
2022/03/04,23:10,0.589,0.879,0.555,1.077,0.768,0.352,0.611,0.577,��쐼,3.6,��
2022/03/04,23:20,0.591,0.881,0.557,1.078,0.768,0.353,0.613,0.577,��쐼,3.5,��
2022/03/04,23:30,0.590,0.876,0.556,1.078,0.768,0.353,0.613,0.578,��쐼,3.0,��
2022/03/04,23:40,0.589,0.879,0.556,1.077,0.767,0.353,0.613,0.578,�쐼,2.8,��
2022/03/04,23:50,0.590,0.879,0.555,1.076,0.768,0.351,0.613,0.578,��쐼,3.2,��
